When you browse on this site, cookies collect data to enhance your experience and personalize the content and advertising you see.
Visit our Privacy Policy to learn more. By continuing to use the site, you agree to this use of cookies and data.
  • In Austria
  • List of Countries
  • For 7 days
  • Water Temperature
  • Weather Map
  • News
  • Weather Widgets
  • user-avatar
    Login

    Hourly Weather A'ali

    Today, 29 February, Saturday

    Time Temperature Precipitation Wind Pressure Humidity
    00:00 +20°C° 0 mm 4 mps 760 mmHg 63%
    01:00 +20°C° 0 mm 4 mps 759 mmHg 63%
    02:00 +19°C° 0 mm 4 mps 759 mmHg 63%
    03:00 +19°C° 0 mm 4 mps 758 mmHg 62%
    04:00 +19°C° 0 mm 4 mps 758 mmHg 63%
    05:00 +19°C° 0 mm 4 mps 759 mmHg 63%
    06:00 +19°C° 0 mm 4 mps 759 mmHg 64%
    07:00 +19°C° 0 mm 3 mps 759 mmHg 62%
    08:00 +20°C° 0 mm 3 mps 759 mmHg 61%
    09:00 +20°C° 0 mm 2 mps 760 mmHg 61%
    10:00 +20°C° 0 mm 2 mps 759 mmHg 60%
    11:00 +20°C° 0 mm 2 mps 759 mmHg 58%
    12:00 +21°C° 0 mm 2 mps 759 mmHg 57%
    13:00 +21°C° 0 mm 2 mps 758 mmHg 56%
    14:00 +21°C° 0 mm 2 mps 757 mmHg 55%
    15:00 +21°C° 0 mm 2 mps 757 mmHg 54%
    16:00 +21°C° 0 mm 2 mps 757 mmHg 57%
    17:00 +21°C° 0 mm 3 mps 757 mmHg 61%
    18:00 +21°C° 0 mm 3 mps 757 mmHg 64%
    19:00 +20°C° 0 mm 3 mps 758 mmHg 66%
    20:00 +20°C° 0 mm 3 mps 758 mmHg 67%
    21:00 +20°C° 0 mm 3 mps 758 mmHg 68%
    22:00 +20°C° 0 mm 4 mps 757 mmHg 68%
    23:00 +20°C° 0 mm 5 mps 757 mmHg 67%

    Tomorrow, 1 March, Sunday

    Time Temperature Precipitation Wind Pressure Humidity
    00:00 +20°C° 0 mm 6 mps 757 mmHg 66%
    01:00 +20°C° 0 mm 6 mps 756 mmHg 68%
    02:00 +20°C° 0 mm 5 mps 756 mmHg 69%
    03:00 +20°C° 0 mm 5 mps 756 mmHg 71%
    04:00 +20°C° 0 mm 5 mps 756 mmHg 71%
    05:00 +20°C° 0 mm 5 mps 756 mmHg 72%
    06:00 +20°C° 0 mm 5 mps 757 mmHg 72%
    07:00 +20°C° 0 mm 4 mps 757 mmHg 70%
    08:00 +20°C° 0 mm 4 mps 758 mmHg 67%
    09:00 +21°C° 0 mm 4 mps 758 mmHg 65%
    10:00 +21°C° 0 mm 4 mps 758 mmHg 61%
    11:00 +22°C° 0 mm 4 mps 757 mmHg 58%
    12:00 +22°C° 0 mm 4 mps 757 mmHg 54%
    13:00 +23°C° 0 mm 4 mps 756 mmHg 51%
    14:00 +23°C° 0 mm 4 mps 756 mmHg 49%
    15:00 +25°C° 0 mm 4 mps 755 mmHg 46%
    16:00 +25°C° 0 mm 5 mps 755 mmHg 50%
    17:00 +23°C° 0 mm 6 mps 755 mmHg 54%
    18:00 +23°C° 0 mm 8 mps 755 mmHg 57%
    19:00 +23°C° 0 mm 7 mps 756 mmHg 58%
    20:00 +22°C° 0 mm 7 mps 756 mmHg 59%
    21:00 +22°C° 0 mm 7 mps 756 mmHg 60%
    22:00 +22°C° 0 mm 5 mps 757 mmHg 61%
    23:00 +22°C° 0 mm 3 mps 757 mmHg 63%

    Day after tomorrow, 2 March, Monday

    Time Temperature Precipitation Wind Pressure Humidity
    00:00 +22°C° 0 mm 1 mps 757 mmHg 65%
    01:00 +21°C° 0 mm 2 mps 757 mmHg 64%
    02:00 +21°C° 0 mm 2 mps 757 mmHg 62%
    03:00 +21°C° 0 mm 2 mps 757 mmHg 61%
    04:00 +21°C° 0 mm 5 mps 758 mmHg 66%
    05:00 +21°C° 0 mm 7 mps 759 mmHg 70%
    06:00 +21°C° 0 mm 10 mps 759 mmHg 75%
    07:00 +21°C° 0 mm 10 mps 760 mmHg 72%
    08:00 +21°C° 0 mm 10 mps 761 mmHg 70%
    09:00 +21°C° 0 mm 9 mps 761 mmHg 68%
    10:00 +21°C° 0 mm 9 mps 761 mmHg 66%
    11:00 +21°C° 0 mm 9 mps 761 mmHg 64%
    12:00 +21°C° 0 mm 9 mps 761 mmHg 62%
    13:00 +21°C° 0 mm 9 mps 760 mmHg 61%
    14:00 +21°C° 0 mm 10 mps 760 mmHg 61%
    15:00 +19°C° 0 mm 10 mps 759 mmHg 60%
    16:00 +19°C° 0 mm 9 mps 760 mmHg 60%
    17:00 +19°C° 0 mm 9 mps 760 mmHg 60%
    18:00 +19°C° 0 mm 9 mps 760 mmHg 61%
    19:00 +19°C° 0 mm 9 mps 761 mmHg 60%
    20:00 +19°C° 0 mm 9 mps 761 mmHg 59%
    21:00 +19°C° 0 mm 9 mps 762 mmHg 59%
    22:00 +20°C° 0 mm 8 mps 762 mmHg 59%
    23:00 +20°C° 0 mm 8 mps 762 mmHg 60%

    3 March, Tuesday

    Time Temperature Precipitation Wind Pressure Humidity
    00:00 +20°C° 0 mm 8 mps 762 mmHg 61%
    01:00 +20°C° 0 mm 8 mps 762 mmHg 62%
    02:00 +20°C° 0 mm 8 mps 761 mmHg 63%
    03:00 +20°C° 0 mm 7 mps 761 mmHg 63%
    04:00 +20°C° 0 mm 8 mps 761 mmHg 63%
    05:00 +20°C° 0 mm 8 mps 762 mmHg 63%
    06:00 +19°C° 0 mm 9 mps 762 mmHg 62%
    07:00 +19°C° 0 mm 9 mps 763 mmHg 61%
    08:00 +19°C° 0 mm 9 mps 763 mmHg 60%
    09:00 +19°C° 0 mm 9 mps 763 mmHg 58%
    10:00 +19°C° 0 mm 9 mps 763 mmHg 58%
    11:00 +19°C° 0 mm 9 mps 763 mmHg 58%
    12:00 +19°C° 0 mm 9 mps 762 mmHg 58%
    13:00 +19°C° 0 mm 9 mps 762 mmHg 59%
    14:00 +19°C° 0 mm 10 mps 761 mmHg 60%
    15:00 +19°C° 0 mm 10 mps 761 mmHg 60%
    16:00 +19°C° 0 mm 10 mps 761 mmHg 60%
    17:00 +19°C° 0 mm 9 mps 761 mmHg 59%
    18:00 +19°C° 0 mm 9 mps 761 mmHg 58%
    19:00 +19°C° 0 mm 9 mps 762 mmHg 58%
    20:00 +20°C° 0 mm 8 mps 762 mmHg 58%
    21:00 +20°C° 0 mm 8 mps 762 mmHg 57%
    22:00 +20°C° 0 mm 8 mps 762 mmHg 57%
    23:00 +20°C° 0 mm 7 mps 762 mmHg 57%

    4 March, Wednesday

    Time Temperature Precipitation Wind Pressure Humidity
    00:00 +20°C° 0 mm 7 mps 762 mmHg 58%
    01:00 +20°C° 0 mm 7 mps 761 mmHg 57%
    02:00 +20°C° 0 mm 8 mps 761 mmHg 56%
    03:00 +18°C° 0 mm 8 mps 761 mmHg 55%
    04:00 +18°C° 0 mm 8 mps 761 mmHg 55%
    05:00 +18°C° 0 mm 8 mps 761 mmHg 55%
    06:00 +18°C° 0 mm 8 mps 761 mmHg 54%
    07:00 +18°C° 0 mm 8 mps 761 mmHg 54%
    08:00 +20°C° 0 mm 8 mps 762 mmHg 54%
    09:00 +20°C° 0 mm 8 mps 762 mmHg 54%
    10:00 +20°C° 0 mm 8 mps 762 mmHg 54%
    11:00 +21°C° 0 mm 8 mps 761 mmHg 54%
    12:00 +21°C° 0 mm 8 mps 761 mmHg 53%
    13:00 +21°C° 0 mm 8 mps 760 mmHg 53%
    14:00 +21°C° 0 mm 9 mps 760 mmHg 53%
    15:00 +21°C° 0 mm 9 mps 759 mmHg 53%
    16:00 +21°C° 0 mm 9 mps 759 mmHg 54%
    17:00 +20°C° 0 mm 8 mps 759 mmHg 56%
    18:00 +20°C° 0 mm 8 mps 759 mmHg 57%
    19:00 +20°C° 0 mm 7 mps 760 mmHg 58%
    20:00 +20°C° 0 mm 6 mps 760 mmHg 59%
    21:00 +20°C° 0 mm 6 mps 760 mmHg 60%
    22:00 +20°C° 0 mm 6 mps 760 mmHg 60%
    23:00 +20°C° 0 mm 6 mps 760 mmHg 60%

    5 March, Thursday

    Time Temperature Precipitation Wind Pressure Humidity
    00:00 +20°C° 0 mm 6 mps 759 mmHg 60%
    01:00 +20°C° 0 mm 6 mps 759 mmHg 59%
    02:00 +20°C° 0 mm 6 mps 759 mmHg 59%
    03:00 +20°C° 0 mm 7 mps 759 mmHg 58%
    04:00 +20°C° 0 mm 7 mps 759 mmHg 58%
    05:00 +20°C° 0 mm 7 mps 759 mmHg 58%
    06:00 +18°C° 0 mm 7 mps 759 mmHg 57%
    07:00 +20°C° 0 mm 6 mps 760 mmHg 58%
    08:00 +20°C° 0 mm 6 mps 760 mmHg 58%
    09:00 +20°C° 0 mm 6 mps 760 mmHg 59%
    10:00 +21°C° 0 mm 6 mps 760 mmHg 58%
    11:00 +21°C° 0 mm 5 mps 760 mmHg 58%
    12:00 +21°C° 0 mm 5 mps 759 mmHg 57%
    13:00 +21°C° 0 mm 5 mps 759 mmHg 58%
    14:00 +21°C° 0 mm 6 mps 759 mmHg 59%
    15:00 +21°C° 0 mm 6 mps 758 mmHg 60%
    16:00 +21°C° 0 mm 6 mps 758 mmHg 62%
    17:00 +20°C° 0 mm 5 mps 759 mmHg 65%
    18:00 +20°C° 0 mm 5 mps 759 mmHg 68%
    19:00 +20°C° 0 mm 5 mps 759 mmHg 68%
    20:00 +20°C° 0 mm 4 mps 759 mmHg 69%
    21:00 +20°C° 0 mm 4 mps 760 mmHg 70%
    22:00 +20°C° 0 mm 3 mps 759 mmHg 70%
    23:00 +20°C° 0 mm 2 mps 759 mmHg 71%
    Show more